Location: Bazinghen
(50.8246°N, 1.6616°E)
Time: 06:16:47
(UTC+00:00)

NOSS 2-1 (C) - Pass Details

Date: 09 April 2020
Orbit: 450 x 1753 km, 63.3° (Epoch: 20 April)

Event Time Altitude Azimuth Distance (km) Brightness Sun altitude
Rises 22:30:00 0° 316° (NW) 2,896 8.1 -28.4°
Reaches altitude 10° 22:32:01 10° 321° (NW) 2,118 7.2 -28.5°
Maximum altitude 22:36:47 59° 42° (NE) 961 4.5 -28.8°
Enters shadow 22:37:01 59° 53° (NE) 976 4.5 -28.8°
